Dewpoint
27 28 27 27 27 27 28 28 29 34 34 35 36 36 36 36 36 38 40 40 38 38 40 40 39 39 39
27 27 26 26 27 25 26 26 29 31 32 34 34 35 35 35 36 37 36 37 38 36 38 39 38 37 38
26 28 27 28 28 28 27 28 26 30 29 31 32 33 34 34 35 34 34 36 37 35 37 37 36 36 36
27 27 27 30 30 28 28 29 26 28 27 28 30 30 32 34 35 33 35 36 37 36 35 35 34 34 35
27 27 28 29 28 30 28 28 27 29 27 26 27 27 27 29 32 32 35 35 36 36 35 35 34 33 33
26 26 28 30 30 29 28 27 25 29 26 26 28 26 26 27 31 32 33 34 36 35 34 34 33 32 32
27 28 29 30 30 29 28 27 26 27 27 24 27 26 27 27 31 31 31 32 34 35 33 33 32 31 31
31 32 32 32 31 30 29 29 28 27 29 24 26 25 27 28 31 29 31 31 33 34 32 32 31 31 30
35 35 34 34 32 30 28 26 24 25 29 28 24 25 23 26 28 29 29 30 32 33 31 31 30 30 28
34 34 34 33 34 31 29 26 25 25 29 26 24 24 20 22 25 27 27 28 31 32 31 31 30 27 26
32 31 32 32 31 29 29 28 27 26 29 28 25 23 23 24 24 24 25 26 27 31 31 30 30 28 25
29 29 28 28 28 28 29 29 29 28 28 28 21 25 23 23 21 24 22 23 28 30 30 29 29 28 28
28 27 28 28 28 28 29 29 28 28 28 27 28 26 26 24 21 21 23 22 27 29 25 27 27 25 24
27 28 28 27 26 27 26 26 25 25 27 28 27 26 25 24 22 23 22 20 23 21 23 27 27 26 24
27 26 26 26 25 26 26 25 21 21 22 24 24 25 24 20 20 19 21 23 25 21 25 25 25 26 24
27 26 25 25 24 25 24 22 21 20 19 19 20 19 16 18 22 18 22 23 17 20 23 24 23 24 25
26 26 25 25 25 22 22 20 19 19 18 16 20 20 16 8 17 26 16 22 15 22 23 23 23 24 26
Lifted_Index
10 10 11 13 14 16 18 18 18 17 18 20 20 20 19 18 18 17 16 16 16 16 16 15 15 14 14
9 10 11 13 14 16 17 17 16 16 18 20 20 20 19 19 18 17 17 16 16 16 16 15 15 14 14
7 8 11 12 14 15 16 15 14 16 19 20 20 19 19 18 18 18 17 16 16 16 16 16 15 15 15
6 7 9 10 12 13 13 12 14 17 20 20 20 19 19 19 18 18 17 17 16 16 16 16 15 15 15
5 5 6 8 11 12 11 10 13 17 19 19 19 19 19 19 18 18 17 17 17 16 16 16 15 15 15
4 4 6 9 12 12 10 9 12 16 18 18 19 19 19 18 18 18 17 17 17 16 16 15 15 15 15
5 5 8 11 13 12 11 11 15 18 18 17 18 19 18 18 18 18 17 17 17 16 16 15 15 15 15
8 9 12 14 14 12 12 14 17 19 18 17 17 18 18 18 18 17 17 17 17 17 16 15 15 16 16
11 12 15 15 14 13 14 15 17 18 18 17 18 18 18 18 17 17 17 17 17 17 16 16 15 16 16
11 13 15 15 14 16 17 17 17 17 17 18 19 18 18 17 17 17 17 17 17 16 16 16 16 15 15
10 12 13 14 15 18 20 19 17 17 18 19 19 19 17 16 16 17 17 17 16 16 16 16 16 15 15
9 10 12 13 16 19 20 19 18 19 20 20 19 18 17 16 16 16 16 16 16 15 15 15 16 15 15
8 10 12 14 17 19 20 19 19 20 21 20 19 18 17 16 16 16 16 16 15 15 15 15 15 15 15
10 11 13 15 18 19 18 18 19 20 20 20 19 18 17 16 16 16 16 15 15 15 15 15 15 15 15
12 13 14 16 17 18 18 18 18 19 20 20 19 18 17 17 17 16 16 16 15 15 15 15 15 15 15
13 14 15 15 17 17 17 18 19 20 20 19 19 18 17 17 17 17 16 16 15 15 15 14 14 15 15
14 14 15 16 17 17 17 18 19 20 20 19 18 18 17 17 17 17 16 15 15 15 15 14 14 14 15